www.pogodaiklimat.ru

Погода и климат >> Архив погоды >> Ирак >> Al-Nukhib


ПОГОДА в Al-Nukhib

  • Прогноз погоды в Al-Nukhib
  • Монитор погоды в Al-Nukhib
  • Климат города

АРХИВ ПОГОДЫ в Al-Nukhib

Время (UTC), дата Ветер
(напр.,м/с)
 
Видим.   Явления Облачность Т
(С)
Тd
(С)
f
(%)
Тe
(С)
Тes
(С)
Комфортность P
(гПа)
Po
(гПа)
Тmin
(С)
Tmax
(С)
R
(мм)
R24
(мм)
S
(см)
12 18.02 С 7 10 км 4/0
[Ci sp]
+18.2 +5.4 43 +18 +19 1007.1 1007.0
15 18.02 СЗ 4 10 км 6/6 900 м
[Cu Sc]
+16.0 +5.0 48 +15 +15 1008.4 1008.0
18 18.02 штиль 0 10 км 6/6 900 м
[Cu Sc]
+12.3 +5.0 61 +12 +12 1009.2 1009.0 +18.8
06 19.02 С 3 10 км 4/0
[Ci sp]
+11.2 +4.8 65 +10 +13 1013.9 1014.0 +10.1
09 19.02 З 6 10 км ясно +15.0 +9.1 68 +13 +18 1014.8 1015.0
12 19.02 СЗ 5 10 км 5/5 900 м
[Cu hum]
+18.0 +8.2 53 +18 +19 1014.0 1014.0
15 19.02 СЗ 5 10 км 3/3 900 м
[Cu hum]
+15.8 +7.6 58 +15 +15 1015.1 1015.0
18 19.02 С 4 10 км ясно +11.5 +9.3 86 +9 +9 1017.2 1017.0 +18.5
03 20.02 С 2 7000 м дымка ясно +7.8 +7.1 95 +6 +6 1017.9 1018.0
06 20.02 С 1 8000 м дымка 5/0
[Ac trans Ci fib]
+8.6 +7.9 95 +8 +12 1018.9 1019.0 +7.6
09 20.02 В 4 10 км 9/9 900 м
[Sc]
+14.6 +9.5 71 +13 +14 1016.9 1017.0
15 20.02 В 4 10 км 10/8
[Sc Ci fib]
+15.8 +9.2 65 +15 +15 1014.8 1015.0
18 20.02 В 4 10 км 10/10 900 м
[Sc]
+12.8 +9.2 79 +11 +11 1015.2 1015.0 +16.2
03 21.02 СВ 5 10 км 5/0
[Ac trans Ci sp]
+10.0 +9.0 93 +7 +7 1013.2 1013.0
06 21.02 В 4 7000 м дымка 8/0
[Ac trans Ci sp]
+12.0 +10.4 90 +10 +12 1013.3 1013.0 +9.7
09 21.02 Ю 7 10 км 8/4
[Sc Ci sp]
+18.0 +8.2 53 +17 +19 1010.9 1011.0
12 21.02 Ю 8 10 км 10/0
[As trans]
+21.2 +7.2 40 +22 +22 комфорт 1008.5 1009.0
15 21.02 В 6 8000 м пыль 10/0
[As trans]
+20.0 +7.5 44 +21 +21 комфорт 1006.9 1007.0
18 21.02 В 6 10 км ясно +15.0 +10.0 72 +13 +13 1009.9 1010.0 +21.5
03 22.02 СЗ 2 900 м туман ясно +9.6 +9.4 99 +8 +8 1009.9 1010.0
06 22.02 С 3 900 м туман ясно +9.6 +8.8 95 +7 +11 1011.8 1012.0 +9.6
09 22.02 СЗ 5 8000 м дымка 10/0
[As trans]
+15.0 +11.8 81 +14 +16 1011.3 1011.0
12 22.02 СЗ 6 10 км 5/0
[Ac trans]
+19.2 +11.6 61 +20 +22 1009.6 1010.0
18 22.02 С 6 10 км ясно +14.0 +10.1 77 +12 +12 1011.8 1012.0 +19.5
06 23.02 СВ 6 7000 м дымка 10/4 900 м
[Sc As trans]
+10.6 +9.4 92 +7 +8 1013.1 1013.0 +8.7
09 23.02 В 5 10 км 10/6 900 м
[Sc As trans]
+14.0 +11.1 83 +12 +13 1011.5 1012.0
12 23.02 В 4 8000 м слабый дождь 10/6 900 м
[Sc As op]
+14.4 +12.9 91 +13 +13 1008.7 1009.0
15 23.02 В 4 8000 м слабый дождь 10/8 900 м
[Sc As op]
+13.0 +12.2 95 +11 +11 1009.8 1010.0
03 24.02 штиль 0 10 км 10/10 900 м
[Sc]
+10.4 +9.6 95 +10 +10 1009.8 1010.0
06 24.02 З 4 10 км 5/0
[Ac trans]
+11.4 +10.0 91 +9 +11 1011.3 1011.0 +10.0
09 24.02 СЗ 1 10 км 10/10 900 м
[Frnb]
+14.0 +10.1 77 +14 +14 1010.3 1010.0
12 24.02 З 3 10 км 10/10 840 м
[Cu Sc]
+15.8 +10.5 71 +15 +15 1008.3 1008.0
15 24.02 СЗ 4 10 км ясно +15.3 +9.5 68 +14 +14 1008.6 1009.0
18 24.02 СЗ 2 10 км 4/0
[Ci sp]
+13.0 +10.1 83 +12 +12 1010.8 1011.0 +16.2
03 25.02 З 3 10 км ясно +8.8 +7.5 92 +6 +6 1012.5 1013.0

 

Местоположение метеостанции Al-Nukhib (Ирак): широта 32.03 долгота 42.25 высота над уровнем моря 305 м.

В архиве по умолчанию представлена погода в Al-Nukhib за последнюю неделю. Архивные данные за месяц целиком и за предыдущие месяцы, начиная с января 2011 года, Вы можете получить, выбрав интересующий диапазон дат из раскрывающегося списка и нажав кнопку "Ввод!".

Внимание! Время в таблицах - всемирное. Для получения местного времени необходимо прибавить поправку, которая в Al-Nukhib равна 3 ч.

Смотрите также архив погоды в соседних городах и на ближайших метеорологических станциях:

Погода в Arar (Саудовская Аравия) (165 км)
Погода в Karbalaa (Ирак) (179 км)
Погода в Ramadi (Ирак) (187 км)
Погода в Najaf (Ирак) (195 км)
Погода в Hella (Ирак) (212 км)
Погода в Rutbah (Ирак) (216 км)
Погода в Heet (Ирак) (227 км)
Погода в Haditha (Ирак) (227 км)
Погода в Baghdad (Ирак) (228 км)
Погода в Diwaniya (Ирак) (258 км)

Пояснения к столбцам:

Ветер - указаны скорость ветра в м/с - средняя за 10 мин, порывы в срок и между сроками (в фигурных скобках) и направление, откуда дует ветер: С - северный, СВ - северо-восточный, В - восточный, ЮВ - юго-восточный, Ю - южный, ЮЗ - юго-западный, З - западный, СЗ - северо-западный.
Видимость - горизонтальная дальность видимости в метрах или километрах. При видимости от 1 до 10 км при отсутствии осадков обычно наблюдается дымка, при ухудшении видимости до 1 км и менее - туман. В сухую погоду видимость может ухудшаться дымом, пылью или мглою.
Явления - указаны атмосферные явления, наблюдавшиеся в срок или в последний час перед сроком; фигурными скобками обозначены явления, наблюдавшиеся между сроками (за 1-3 часа до срока); квадратными скобками обозначены град или гололедные отложения с указанием их диаметра в мм.
Облачность - указаны через наклонную черту общая и нижняя облачность в баллах и высота нижней границы облаков в метрах; квадратными скобками обозначены формы облаков: Ci - перистые, Cs - перисто-слоистые, Cc - перисто-кучевые, Ac - высококучевые, As - высокослоистые, Sc - слоисто-кучевые, Ns - слоисто-дождевые, Cu - кучевые, Cb - кучево-дождевые. Подробнее классификацию облаков см. в Атласе облаков (PDF).
T - Температура воздуха - температура, измеренная на высоте 2 м над землей.
Td - Температура точки росы - температура, при понижении до которой содержащийся в воздухе водяной пар достигнет насыщения.
f - Относительная влажность воздуха - влажноcть воздуха, измеренная на высоте 2 м над землей.
Te - Эффективная температура - температура, которую ощущает одетый по сезону человек в тени. Характеристика душности погоды. При расчете учитывается влияние влажности воздуха и скорости ветра на теплоощущения человека.
Tes - Эффективная температура на солнце - температура, которую ощущает человек, с поправкой на солнечный нагрев. Характеристика знойности погоды. Зависит от высоты солнца над горизонтом, облачности и скорости ветра. Ночью, в пасмурную погоду, а также при ветре 12 м/с и более поправка равна нулю.
P - Атмосферное давление - приведенное к уровню моря атмосферное давление.
Po - Атмосферное давление - измеренное на уровне метеостанции атмосферное давление.
Tmin - Минимальная температура - минимум температуры воздуха на высоте 2 м над землей.
Tmax - Максимальная температура - максимум температуры воздуха на высоте 2 м над землей.
R - Количество осадков - Количество выпавших осадков за период времени, мм. При наведении курсора мыши на число - период времени, за который выпало указанное количество осадков.
R24 - Количество осадков - Количество выпавших осадков за 24 часа, мм.
S - Снежный покров - Высота снежного покрова, см. При наведении курсора мыши на число - состояние снежного покрова и степень покрытия местности в баллах.